| time (UTC) | temp F | wind direction | speed knots | gust knots | rain 1hr in | rain 24hr in | rain mn in | humidity % | barometer mb |
| 20260506113044 | 64 | 360 | 6.1 | 7.8 | 0.00 | 0.00 | 0.00 | 38 | 1011.7 |
| 20260506111540 | 66 | 360 | 5.2 | 7.8 | 0.00 | 0.00 | 0.00 | 34 | 1011.6 |
| 20260506110038 | 66 | 360 | 7.0 | 10.4 | 0.00 | 0.00 | 0.00 | 32 | 1011.6 |
| 20260506104537 | 65 | 360 | 6.1 | 9.6 | 0.00 | 0.00 | 0.00 | 34 | 1011.4 |
| 20260506103052 | 67 | 360 | 7.8 | 10.4 | 0.00 | 0.00 | 0.00 | 32 | 1011.2 |
| 20260506101544 | 68 | 360 | 9.6 | 11.3 | 0.00 | 0.00 | 0.00 | 31 | 1011.0 |
| 20260506100041 | 67 | 360 | 8.7 | 11.3 | 0.00 | 0.00 | 0.00 | 33 | 1011.1 |
| 20260506094541 | 66 | 360 | 8.7 | 11.3 | 0.00 | 0.00 | 0.00 | 36 | 1010.9 |
| 20260506093038 | 67 | 360 | 7.8 | 10.4 | 0.00 | 0.00 | 0.00 | 37 | 1010.9 |
| 20260506091543 | 67 | 360 | 7.0 | 10.4 | 0.00 | 0.00 | 0.00 | 37 | 1010.8 |
| 20260506090037 | 68 | 360 | 8.7 | 13.0 | 0.00 | 0.00 | 0.00 | 36 | 1010.6 |
| 20260506084544 | 68 | 360 | 7.8 | 12.2 | 0.00 | 0.00 | 0.00 | 42 | 1010.5 |
| 20260506083036 | 68 | 360 | 6.1 | 8.7 | 0.00 | 0.00 | 0.00 | 45 | 1010.6 |
| 20260506081543 | 67 | 360 | 3.5 | 5.2 | 0.00 | 0.00 | 0.00 | 46 | 1010.6 |
| 20260506073037 | 69 | 360 | 7.0 | 8.7 | 0.00 | 0.00 | 0.00 | 43 | 1010.6 |
| 20260506071537 | 69 | 360 | 4.3 | 7.8 | 0.00 | 0.00 | 0.00 | 44 | 1010.4 |
| 20260506061537 | 71 | 360 | 2.6 | 4.3 | 0.00 | 0.00 | 0.00 | 40 | 1010.2 |
| 20260506044546 | 71 | 0 | 0.0 | 1.7 | 0.00 | 0.00 | 0.00 | 39 | 1009.9 |
| 20260506043043 | 71 | 360 | 1.7 | 2.6 | 0.00 | 0.00 | 0.00 | 38 | 1009.9 |
| 20260506041543 | 72 | 360 | 1.7 | 3.5 | 0.00 | 0.00 | 0.00 | 37 | 1009.8 |
| 20260506040044 | 73 | 360 | 1.7 | 3.5 | 0.00 | 0.00 | 0.00 | 37 | 1009.6 |
| 20260506034557 | 73 | 360 | 1.7 | 5.2 | 0.00 | 0.00 | 0.00 | 37 | 1009.5 |
| 20260506033038 | 72 | 360 | 3.5 | 5.2 | 0.00 | 0.00 | 0.00 | 38 | 1009.2 |
| 20260506031544 | 72 | 360 | 4.3 | 7.0 | 0.00 | 0.00 | 0.00 | 38 | 1009.0 |
| 20260506030044 | 73 | 360 | 3.5 | 5.2 | 0.00 | 0.00 | 0.00 | 37 | 1009.1 |
| 20260506024557 | 71 | 360 | 4.3 | 7.0 | 0.00 | 0.00 | 0.00 | 39 | 1008.8 |
| 20260506023041 | 72 | 360 | 5.2 | 7.8 | 0.00 | 0.00 | 0.00 | 38 | 1008.8 |
| 20260506021541 | 72 | 360 | 5.2 | 7.8 | 0.00 | 0.00 | 0.00 | 36 | 1008.9 |
| 20260506020037 | 74 | 360 | 6.1 | 7.8 | 0.00 | 0.00 | 0.00 | 34 | 1008.7 |
| 20260506014547 | 75 | 360 | 6.1 | 8.7 | 0.00 | 0.00 | 0.00 | 31 | 1008.5 |
| 20260506013100 | 77 | 360 | 7.0 | 9.6 | 0.00 | 0.00 | 0.00 | 29 | 1008.6 |
| 20260506011544 | 78 | 360 | 7.8 | 12.2 | 0.00 | 0.00 | 0.00 | 28 | 1008.5 |
| 20260506010043 | 79 | 360 | 11.3 | 16.5 | 0.00 | 0.00 | 0.00 | 27 | 1008.6 |
| 20260506004538 | 79 | 360 | 12.2 | 20.0 | 0.00 | 0.00 | 0.00 | 27 | 1008.7 |
| 20260506003039 | 80 | 360 | 11.3 | 16.5 | 0.00 | 0.00 | 0.00 | 26 | 1008.7 |
| 20260506001546 | 80 | 360 | 9.6 | 19.1 | 0.00 | 0.00 | 0.00 | 27 | 1008.7 |
| 20260506000044 | 80 | 360 | 12.2 | 20.0 | 0.00 | 0.00 | 0.00 | 26 | 1008.7 |
| 20260505234543 | 80 | 360 | 14.8 | 25.2 | 0.00 | 0.00 | 0.00 | 27 | 1008.8 |
| 20260505233041 | 80 | 360 | 15.6 | 21.7 | 0.00 | 0.00 | 0.00 | 27 | 1008.8 |
| 20260505231541 | 79 | 360 | 16.5 | 23.5 | 0.00 | 0.00 | 0.00 | 28 | 1008.6 |
| 20260505230051 | 78 | 360 | 15.6 | 22.6 | 0.00 | 0.00 | 0.00 | 29 | 1008.7 |
| 20260505224537 | 78 | 360 | 16.5 | 21.7 | 0.00 | 0.00 | 0.00 | 30 | 1009.1 |
| 20260505223055 | 76 | 360 | 16.5 | 22.6 | 0.00 | 0.00 | 0.00 | 31 | 1009.2 |
| 20260505221544 | 76 | 360 | 14.8 | 20.9 | 0.00 | 0.00 | 0.00 | 32 | 1009.1 |
| 20260505220046 | 76 | 360 | 16.5 | 22.6 | 0.00 | 0.00 | 0.00 | 32 | 1009.4 |
| 20260505214541 | 76 | 360 | 16.5 | 23.5 | 0.00 | 0.00 | 0.00 | 31 | 1009.5 |
| 20260505213051 | 76 | 360 | 14.8 | 24.3 | 0.00 | 0.00 | 0.00 | 30 | 1009.7 |
| 20260505211537 | 76 | 360 | 20.0 | 26.9 | 0.00 | 0.00 | 0.00 | 29 | 1009.8 |
| 20260505210038 | 77 | 360 | 20.0 | 26.9 | 0.00 | 0.00 | 0.00 | 28 | 1010.1 |
| 20260505204542 | 78 | 360 | 17.4 | 23.5 | 0.00 | 0.00 | 0.00 | 28 | 1010.3 |
| 20260505203050 | 77 | 360 | 16.5 | 22.6 | 0.00 | 0.00 | 0.00 | 28 | 1010.2 |
| 20260505201542 | 78 | 360 | 16.5 | 21.7 | 0.00 | 0.00 | 0.00 | 28 | 1010.3 |
| 20260505200037 | 78 | 360 | 15.6 | 22.6 | 0.00 | 0.00 | 0.00 | 28 | 1010.3 |
| 20260505194555 | 78 | 360 | 15.6 | 21.7 | 0.00 | 0.00 | 0.00 | 29 | 1010.2 |
| 20260505193043 | 77 | 360 | 13.0 | 16.5 | 0.00 | 0.00 | 0.00 | 29 | 1010.5 |
| 20260505191543 | 78 | 360 | 9.6 | 16.5 | 0.00 | 0.00 | 0.00 | 29 | 1010.5 |
| 20260505190043 | 76 | 360 | 12.2 | 18.2 | 0.00 | 0.00 | 0.00 | 28 | 1010.6 |
| 20260505184541 | 77 | 360 | 9.6 | 15.6 | 0.00 | 0.00 | 0.00 | 28 | 1010.8 |
| 20260505183051 | 77 | 360 | 9.6 | 17.4 | 0.00 | 0.00 | 0.00 | 27 | 1011.1 |
| 20260505181541 | 77 | 360 | 11.3 | 15.6 | 0.00 | 0.00 | 0.00 | 27 | 1011.1 |
| 20260505180054 | 77 | 360 | 9.6 | 14.8 | 0.00 | 0.00 | 0.00 | 27 | 1011.2 |
| 20260505174546 | 77 | 360 | 11.3 | 18.2 | 0.00 | 0.00 | 0.00 | 28 | 1011.1 |
| 20260505173044 | 76 | 360 | 9.6 | 17.4 | 0.00 | 0.00 | 0.00 | 28 | 1010.9 |
| 20260505171544 | 76 | 360 | 11.3 | 17.4 | 0.00 | 0.00 | 0.00 | 29 | 1010.9 |
| 20260505170043 | 76 | 360 | 11.3 | 19.1 | 0.00 | 0.00 | 0.00 | 29 | 1011.0 |
| 20260505164557 | 75 | 360 | 15.6 | 20.9 | 0.00 | 0.00 | 0.00 | 29 | 1010.8 |
| 20260505163048 | 75 | 360 | 13.0 | 19.1 | 0.00 | 0.00 | 0.00 | 29 | 1010.8 |
| 20260505161542 | 75 | 360 | 13.0 | 16.5 | 0.00 | 0.00 | 0.00 | 30 | 1010.8 |
| 20260505153059 | 73 | 360 | 10.4 | 13.0 | 0.00 | 0.00 | 0.00 | 32 | 1010.8 |
| 20260505151548 | 73 | 360 | 6.1 | 9.6 | 0.00 | 0.00 | 0.00 | 34 | 1010.5 |
| 20260505124543 | 68 | 360 | 4.3 | 5.2 | 0.00 | 0.00 | 0.00 | 38 | 1009.0 |
| 20260505123045 | 68 | 360 | 2.6 | 4.3 | 0.00 | 0.00 | 0.00 | 39 | 1008.8 |
| 20260505121549 | 68 | 360 | 0.9 | 2.6 | 0.00 | 0.00 | 0.00 | 37 | 1008.7 |
| 20260505120038 | 66 | 0 | 0.0 | 3.5 | 0.00 | 0.00 | 0.00 | 41 | 1008.6 |
| 20260505114541 | 67 | 360 | 0.9 | 2.6 | 0.00 | 0.00 | 0.00 | 40 | 1008.4 |